Tracking 35280 objects as of 7-Sep-2026
HD Live streaming from Space Station
objects crossing your sky now

SITRO-AIS-9

Track SITRO-AIS-9 now!
10-day predictions
SITRO-AIS-9 is classified as:


NORAD ID: 57201
Int'l Code: 2023-091AM
Launch date: June 27, 2023
Source: (TBD)
Launch site: VOSTOCHNY COSMODROME (VOSTO)

Uplink (MHz):
Downlink (MHz): 401.260
Beacon (MHz):
Mode: 2k4 GMSK_USP
Call sign: SC2211
Status: Active

Your satellite tracking list
Your tracking list is empty




NASA's NSSDC Master Catalog

Two Line Element Set (TLE):
1 57201U 23091AM  26249.84702037  .00014062  00000-0  34394-3 0  9993
2 57201  97.5011 322.1424 0007410 132.8344 227.3526 15.40885905177316
Source of the keplerian elements: AFSPC